User: anonymous   Login
Location: Unspecified
(0.0000°N, 0.0000°E)
Time: 14:17:40
(UTC+00:00)
Language:

SCISAT 1 - Orbit

View from above orbital plane
View from above orbital plane
View from above satellite
View from above satellite

Ground track
Ground track

The orbit data is extracted from the following two-line orbital elements,

1 27858U 03036A   18114.97820326  .00000095  00000-0  18489-4 0  9992
2 27858  73.9318 293.0413 0008733 316.0773  43.9706 14.77195385791818
Epoch (UTC): 24 April 2018 23:28:36
Eccentricity: 0.0008733
inclination: 73.9318°
perigee height: 632 km
apogee height: 644 km
right ascension of ascending node: 293.0413°
argument of perigee: 316.0773°
revolutions per day: 14.77195385
mean anomaly at epoch: 43.9706°
orbit number at epoch: 79181

The dashed part of the orbit path shows where the satellite is in the earth's shadow,  

DLR